SIA7449 KLAX-YSSY

Flight info

Callsign SIA7449
Flight time N/A
Altitude 26000
Route SUMMR2 FICKY DCT 25N130W/N0499F280 16N140W 07N150W/N0509F300 02S160W 05S163W 10S170W/N0503F320 15S175W DCT IDNIP DCT 18S180E DCT NILAX DCT 25S170E/N0489F340 30S163E 31S160E DCT GOOMA H258 RIKNI N774 MARLN
Aircraft B77L/H-SDE1E2E3FGHIJ2J3J4J5M1RWXY/LB1D1

Departure

Time N/A
Airport Los Angeles International Airport (KLAX)

Arrival

Time 2026-04-21 17:46
Airport Sydney Kingsford Smith International Airport (YSSY)
Time Latitude Longitude Altitude Speed Heading
2026-04-21 16:08 -30.25434 162.26186 36049 ft 442 kts 248°
2026-04-21 16:08 -30.26560 162.22881 36041 ft 441 kts 248°
2026-04-21 16:09 -30.28806 162.16280 36069 ft 441 kts 248°
2026-04-21 16:09 -30.31052 162.09666 36062 ft 442 kts 248°
2026-04-21 16:10 -30.33295 162.03047 36052 ft 442 kts 248°
2026-04-21 16:10 -30.35534 161.96428 36055 ft 442 kts 248°
2026-04-21 16:11 -30.37771 161.89801 36057 ft 442 kts 248°
2026-04-21 16:11 -30.40004 161.83175 36060 ft 442 kts 248°
2026-04-21 16:12 -30.42233 161.76546 36058 ft 442 kts 248°
2026-04-21 16:12 -30.44460 161.69912 36058 ft 442 kts 248°
2026-04-21 16:13 -30.46682 161.63277 36057 ft 442 kts 248°
2026-04-21 16:13 -30.48906 161.56627 36041 ft 443 kts 248°
2026-04-21 16:14 -30.51125 161.49976 36054 ft 442 kts 248°
2026-04-21 16:14 -30.53340 161.43323 36061 ft 442 kts 248°
2026-04-21 16:15 -30.55552 161.36668 36060 ft 442 kts 248°
2026-04-21 16:15 -30.57760 161.30011 36064 ft 442 kts 248°
2026-04-21 16:16 -30.59966 161.23345 36063 ft 442 kts 248°
2026-04-21 16:16 -30.62166 161.16685 36054 ft 442 kts 248°
2026-04-21 16:17 -30.64361 161.10027 36067 ft 441 kts 248°
2026-04-21 16:17 -30.66553 161.03365 36079 ft 442 kts 248°
2026-04-21 16:18 -30.68744 160.96693 36077 ft 442 kts 248°
2026-04-21 16:18 -30.70933 160.90016 36074 ft 442 kts 248°
2026-04-21 16:19 -30.73117 160.83335 36067 ft 442 kts 248°
2026-04-21 16:19 -30.75296 160.76659 36074 ft 442 kts 248°
2026-04-21 16:20 -30.77471 160.69982 36074 ft 442 kts 248°
2026-04-21 16:20 -30.79643 160.63302 36073 ft 442 kts 248°
2026-04-21 16:21 -30.81811 160.56619 36079 ft 442 kts 248°
2026-04-21 16:21 -30.83975 160.49933 36086 ft 441 kts 248°
2026-04-21 16:22 -30.86136 160.43246 36085 ft 442 kts 248°
2026-04-21 16:22 -30.88293 160.36554 36082 ft 442 kts 248°
2026-04-21 16:23 -30.90448 160.29859 36084 ft 442 kts 248°
2026-04-21 16:23 -30.92599 160.23159 36085 ft 442 kts 248°
2026-04-21 16:24 -30.94746 160.16458 36079 ft 441 kts 248°
2026-04-21 16:24 -30.96887 160.09762 36086 ft 441 kts 248°
2026-04-21 16:25 -30.99025 160.03064 36089 ft 441 kts 248°
2026-04-21 16:25 -31.01534 159.96569 36090 ft 439 kts 240°
2026-04-21 16:26 -31.04475 159.90330 36100 ft 439 kts 240°
2026-04-21 16:26 -31.07407 159.84076 36083 ft 439 kts 240°
2026-04-21 16:27 -31.10321 159.77816 36100 ft 439 kts 240°
2026-04-21 16:27 -31.13225 159.71552 36101 ft 439 kts 240°
2026-04-21 16:28 -31.16123 159.65285 36102 ft 439 kts 240°
2026-04-21 16:28 -31.19018 159.59017 36097 ft 438 kts 240°
2026-04-21 16:29 -31.21420 159.53806 36127 ft 438 kts 240°
2026-04-21 16:29 -31.24798 159.46470 36115 ft 438 kts 240°
2026-04-21 16:30 -31.27679 159.40200 36100 ft 438 kts 240°
2026-04-21 16:30 -31.30555 159.33929 36101 ft 437 kts 240°
2026-04-21 16:31 -31.33427 159.27659 36103 ft 437 kts 240°
2026-04-21 16:31 -31.36295 159.21385 36106 ft 437 kts 240°
2026-04-21 16:32 -31.39159 159.15112 36103 ft 437 kts 240°
2026-04-21 16:32 -31.42016 159.08844 36114 ft 437 kts 240°
2026-04-21 16:33 -31.44869 159.02571 36113 ft 436 kts 240°
2026-04-21 16:33 -31.47719 158.96296 36100 ft 436 kts 240°
2026-04-21 16:34 -31.50565 158.90020 36103 ft 436 kts 240°
2026-04-21 16:34 -31.53406 158.83742 36106 ft 436 kts 240°
2026-04-21 16:35 -31.56242 158.77468 36112 ft 435 kts 240°
2026-04-21 16:35 -31.59069 158.71199 36123 ft 435 kts 240°
2026-04-21 16:36 -31.61874 158.64971 36127 ft 435 kts 240°
2026-04-21 16:36 -31.64693 158.58701 36134 ft 434 kts 240°
2026-04-21 16:37 -31.67529 158.52383 36131 ft 434 kts 240°
2026-04-21 16:37 -31.70322 158.46150 36136 ft 434 kts 240°
2026-04-21 16:38 -31.73132 158.39867 36132 ft 434 kts 240°
2026-04-21 16:38 -31.75485 158.34599 36134 ft 435 kts 240°
2026-04-21 16:39 -31.78291 158.28305 36162 ft 435 kts 240°
2026-04-21 16:39 -31.81097 158.22002 36138 ft 435 kts 240°
2026-04-21 16:40 -31.83896 158.15704 36134 ft 434 kts 240°
2026-04-21 16:40 -31.86685 158.09417 36132 ft 433 kts 240°
2026-04-21 16:41 -31.89465 158.03138 36139 ft 432 kts 240°
2026-04-21 16:41 -31.92240 157.96862 36137 ft 432 kts 240°
2026-04-21 16:42 -31.95009 157.90589 36144 ft 432 kts 240°
2026-04-21 16:42 -31.97774 157.84313 36135 ft 432 kts 240°
2026-04-21 16:43 -32.00535 157.78036 36143 ft 431 kts 240°
2026-04-21 16:43 -32.03291 157.71758 36144 ft 431 kts 240°
2026-04-21 16:44 -32.06044 157.65479 36147 ft 431 kts 240°
2026-04-21 16:44 -32.08793 157.59195 36147 ft 431 kts 240°
2026-04-21 16:45 -32.11541 157.52906 36128 ft 431 kts 240°
2026-04-21 16:45 -32.14280 157.46622 36167 ft 431 kts 240°
2026-04-21 16:46 -32.17018 157.40333 36159 ft 431 kts 240°
2026-04-21 16:46 -32.19755 157.34034 36153 ft 431 kts 240°
2026-04-21 16:47 -32.22489 157.27733 36159 ft 431 kts 240°
2026-04-21 16:47 -32.25238 157.21384 36124 ft 431 kts 240°
2026-04-21 16:48 -32.27943 157.15125 36156 ft 430 kts 240°
2026-04-21 16:48 -32.30659 157.08830 36166 ft 430 kts 240°
2026-04-21 16:49 -32.33373 157.02532 36174 ft 430 kts 240°
2026-04-21 16:49 -32.36103 156.96182 36171 ft 430 kts 240°
2026-04-21 16:50 -32.38812 156.89871 36171 ft 430 kts 240°
2026-04-21 16:50 -32.41515 156.83563 36167 ft 429 kts 240°
2026-04-21 16:51 -32.44213 156.77254 36174 ft 429 kts 240°
2026-04-21 16:51 -32.46904 156.70952 36181 ft 429 kts 240°
2026-04-21 16:52 -32.49592 156.64646 36191 ft 429 kts 240°
2026-04-21 16:52 -32.52282 156.58324 36190 ft 430 kts 240°
2026-04-21 16:53 -32.54966 156.52005 36180 ft 429 kts 240°
2026-04-21 16:53 -32.57644 156.45688 36186 ft 429 kts 240°
2026-04-21 16:54 -32.60315 156.39375 36186 ft 428 kts 240°
2026-04-21 16:54 -32.62984 156.33058 36194 ft 428 kts 240°
2026-04-21 16:55 -32.65666 156.26699 36222 ft 428 kts 240°
2026-04-21 16:55 -32.68329 156.20373 36184 ft 428 kts 240°
2026-04-21 16:56 -32.70968 156.14093 36199 ft 428 kts 240°
2026-04-21 16:56 -32.73618 156.07774 36201 ft 428 kts 240°
2026-04-21 16:57 -32.76266 156.01450 36194 ft 428 kts 240°
2026-04-21 16:57 -32.78910 155.95123 36198 ft 427 kts 240°
2026-04-21 16:58 -32.81551 155.88792 36202 ft 427 kts 240°
2026-04-21 16:58 -32.84186 155.82466 36207 ft 427 kts 240°
2026-04-21 16:59 -32.86819 155.76131 36206 ft 427 kts 240°
2026-04-21 16:59 -32.89449 155.69795 36203 ft 427 kts 240°
2026-04-21 17:00 -32.92077 155.63448 36203 ft 427 kts 240°
2026-04-21 17:00 -32.94257 155.58176 36207 ft 427 kts 240°
2026-04-21 17:01 -32.97320 155.50756 36213 ft 427 kts 240°
2026-04-21 17:01 -32.99937 155.44403 36215 ft 428 kts 240°
2026-04-21 17:02 -33.02554 155.38038 36212 ft 428 kts 240°
2026-04-21 17:02 -33.05169 155.31666 36208 ft 428 kts 240°
2026-04-21 17:03 -33.07782 155.25289 36222 ft 428 kts 240°
2026-04-21 17:03 -33.10374 155.18949 36228 ft 428 kts 240°
2026-04-21 17:04 -33.12981 155.12560 36225 ft 428 kts 240°
2026-04-21 17:04 -33.15586 155.06168 36221 ft 429 kts 240°
2026-04-21 17:05 -33.18136 154.99727 36224 ft 430 kts 241°
2026-04-21 17:05 -33.20611 154.93237 36219 ft 429 kts 241°
2026-04-21 17:06 -33.23079 154.86748 36224 ft 429 kts 241°
2026-04-21 17:06 -33.25554 154.80260 36232 ft 429 kts 241°
2026-04-21 17:07 -33.27612 154.74868 36230 ft 429 kts 241°
2026-04-21 17:07 -33.30505 154.67277 36233 ft 429 kts 241°
2026-04-21 17:08 -33.32973 154.60788 36233 ft 429 kts 241°
2026-04-21 17:08 -33.35438 154.54293 36238 ft 429 kts 241°
2026-04-21 17:09 -33.39133 154.44537 36237 ft 430 kts 241°
2026-04-21 17:09 -33.41595 154.38017 36237 ft 430 kts 241°
2026-04-21 17:10 -33.44055 154.31492 36241 ft 430 kts 241°
2026-04-21 17:10 -33.46513 154.24957 36251 ft 431 kts 241°
2026-04-21 17:11 -33.48958 154.18449 36245 ft 432 kts 241°
2026-04-21 17:11 -33.51418 154.11884 36250 ft 432 kts 241°
2026-04-21 17:12 -33.53877 154.05309 36248 ft 432 kts 241°
2026-04-21 17:12 -33.56333 153.98729 36241 ft 433 kts 242°
2026-04-21 17:13 -33.58788 153.92139 36255 ft 433 kts 242°
2026-04-21 17:13 -33.61243 153.85538 36260 ft 434 kts 241°
2026-04-21 17:14 -33.63682 153.78965 36252 ft 434 kts 242°
2026-04-21 17:14 -33.66134 153.72343 36230 ft 434 kts 242°
2026-04-21 17:15 -33.68582 153.65718 36255 ft 434 kts 242°
2026-04-21 17:15 -33.71030 153.59082 36259 ft 435 kts 242°
2026-04-21 17:16 -33.73477 153.52433 36258 ft 435 kts 242°
2026-04-21 17:16 -33.75923 153.45775 36267 ft 436 kts 242°
2026-04-21 17:17 -33.78366 153.39111 36256 ft 436 kts 242°
2026-04-21 17:17 -33.80810 153.32430 36264 ft 437 kts 242°
2026-04-21 17:18 -33.83252 153.25742 36268 ft 437 kts 242°
2026-04-21 17:18 -33.85715 153.18989 35456 ft 451 kts 242°
2026-04-21 17:19 -33.86968 153.15548 34749 ft 449 kts 242°
2026-04-21 17:19 -33.88221 153.12099 33791 ft 450 kts 242°
2026-04-21 17:19 -33.89454 153.08698 32855 ft 449 kts 242°
2026-04-21 17:19 -33.90701 153.05254 31928 ft 449 kts 242°
2026-04-21 17:20 -33.91949 153.01806 31032 ft 449 kts 242°
2026-04-21 17:20 -33.93189 152.98375 30381 ft 444 kts 242°
2026-04-21 17:20 -33.94415 152.94980 29615 ft 440 kts 242°
2026-04-21 17:20 -33.95628 152.91617 28930 ft 435 kts 242°
2026-04-21 17:21 -33.96827 152.88293 28310 ft 430 kts 242°
2026-04-21 17:21 -33.98011 152.85006 27697 ft 426 kts 242°
2026-04-21 17:21 -33.99184 152.81749 27052 ft 421 kts 242°
2026-04-21 17:21 -34.00344 152.78525 26488 ft 417 kts 242°
2026-04-21 17:22 -34.01105 152.76407 26107 ft 415 kts 242°
2026-04-21 17:22 -34.02631 152.72159 25347 ft 411 kts 242°
2026-04-21 17:22 -34.03379 152.70074 24984 ft 409 kts 242°
2026-04-21 17:22 -34.04504 152.66938 24418 ft 406 kts 242°
2026-04-21 17:23 -34.05621 152.63817 23872 ft 405 kts 242°
2026-04-21 17:23 -34.06716 152.60701 23220 ft 402 kts 244°
2026-04-21 17:23 -34.07465 152.57439 22635 ft 406 kts 255°
2026-04-21 17:23 -34.07793 152.54057 22102 ft 407 kts 262°
2026-04-21 17:24 -34.07739 152.50644 21564 ft 409 kts 270°
2026-04-21 17:24 -34.07415 152.47254 21065 ft 406 kts 272°
2026-04-21 17:24 -34.07072 152.43888 20563 ft 403 kts 272°
2026-04-21 17:24 -34.06734 152.40540 20060 ft 401 kts 272°
2026-04-21 17:25 -34.06405 152.37206 19566 ft 399 kts 272°
2026-04-21 17:25 -34.06085 152.33889 19049 ft 398 kts 272°
2026-04-21 17:25 -34.05770 152.30579 18542 ft 397 kts 272°
2026-04-21 17:25 -34.05458 152.27273 17964 ft 396 kts 272°
2026-04-21 17:26 -34.05147 152.23981 17429 ft 394 kts 272°
2026-04-21 17:26 -34.04836 152.20703 16918 ft 393 kts 272°
2026-04-21 17:26 -34.04526 152.17442 16408 ft 391 kts 273°
2026-04-21 17:26 -34.04217 152.14193 15902 ft 389 kts 273°
2026-04-21 17:27 -34.03908 152.10954 15406 ft 388 kts 273°
2026-04-21 17:27 -34.03598 152.07727 14902 ft 387 kts 273°
2026-04-21 17:27 -34.03284 152.04505 14409 ft 387 kts 274°
2026-04-21 17:27 -34.02959 152.01292 13883 ft 386 kts 274°
2026-04-21 17:28 -34.02630 151.98079 13334 ft 386 kts 274°
2026-04-21 17:28 -34.02301 151.94876 12799 ft 385 kts 274°
2026-04-21 17:28 -34.01975 151.91685 12302 ft 383 kts 274°
2026-04-21 17:28 -34.01650 151.88500 11799 ft 382 kts 275°
2026-04-21 17:29 -34.01325 151.85331 11306 ft 380 kts 274°
2026-04-21 17:29 -34.01004 151.82210 11144 ft 370 kts 274°
2026-04-21 17:29 -34.00690 151.79174 10973 ft 360 kts 275°
2026-04-21 17:29 -34.00385 151.76221 10828 ft 351 kts 275°
2026-04-21 17:30 -34.00090 151.73342 10679 ft 342 kts 275°
2026-04-21 17:30 -33.99800 151.70525 10447 ft 337 kts 273°
2026-04-21 17:30 -33.99516 151.67776 10345 ft 324 kts 274°
2026-04-21 17:30 -33.99243 151.65138 10237 ft 311 kts 273°
2026-04-21 17:31 -33.98980 151.62600 10078 ft 300 kts 274°
2026-04-21 17:31 -33.98721 151.60073 9394 ft 308 kts 274°
2026-04-21 17:31 -33.98461 151.57561 8960 ft 295 kts 274°
2026-04-21 17:31 -33.98208 151.55162 8628 ft 280 kts 274°
2026-04-21 17:32 -33.97967 151.52840 8489 ft 281 kts 275°
2026-04-21 17:32 -33.97722 151.50472 8283 ft 286 kts 275°
2026-04-21 17:32 -33.97473 151.48095 8056 ft 285 kts 274°
2026-04-21 17:32 -33.97227 151.45748 7830 ft 280 kts 275°
2026-04-21 17:33 -33.96990 151.43453 7618 ft 273 kts 275°
2026-04-21 17:33 -33.96752 151.41205 7409 ft 270 kts 275°
2026-04-21 17:33 -33.96513 151.38960 7207 ft 271 kts 274°
2026-04-21 17:33 -33.96280 151.36701 7011 ft 273 kts 274°
2026-04-21 17:34 -33.96048 151.34431 6799 ft 273 kts 275°
2026-04-21 17:34 -33.95815 151.32162 6558 ft 273 kts 275°
2026-04-21 17:34 -33.95580 151.29902 6351 ft 270 kts 276°
2026-04-21 17:34 -33.94997 151.27783 6115 ft 269 kts 302°
2026-04-21 17:35 -33.93661 151.26237 5942 ft 270 kts 332°
2026-04-21 17:35 -33.91892 151.25529 5835 ft 270 kts 349°
2026-04-21 17:35 -33.90030 151.25141 5808 ft 273 kts 352°
2026-04-21 17:35 -33.88142 151.24788 5755 ft 276 kts 352°
2026-04-21 17:36 -33.86231 151.24613 5506 ft 276 kts
2026-04-21 17:36 -33.84313 151.24664 5300 ft 276 kts
2026-04-21 17:36 -33.82395 151.24717 5073 ft 275 kts
2026-04-21 17:36 -33.80493 151.24774 4832 ft 272 kts
2026-04-21 17:37 -33.78611 151.24833 4594 ft 271 kts
2026-04-21 17:37 -33.76744 151.24890 4356 ft 265 kts
2026-04-21 17:37 -33.74915 151.24948 4044 ft 262 kts
2026-04-21 17:37 -33.73123 151.25004 3850 ft 253 kts
2026-04-21 17:38 -33.71377 151.24979 3606 ft 249 kts 349°
2026-04-21 17:38 -33.69823 151.24143 3436 ft 246 kts 316°
2026-04-21 17:38 -33.68829 151.22530 3396 ft 239 kts 294°
2026-04-21 17:38 -33.68082 151.20732 3299 ft 242 kts 293°
2026-04-21 17:39 -33.67333 151.18915 3201 ft 243 kts 293°
2026-04-21 17:39 -33.66767 151.17054 3077 ft 234 kts 270°
2026-04-21 17:39 -33.67024 151.15203 3027 ft 223 kts 237°
2026-04-21 17:39 -33.68018 151.13848 3009 ft 216 kts 214°
2026-04-21 17:40 -33.69239 151.12773 3014 ft 219 kts 213°
2026-04-21 17:40 -33.70557 151.11921 2969 ft 208 kts 187°
2026-04-21 17:40 -33.71995 151.11951 3008 ft 210 kts 173°
2026-04-21 17:40 -33.73463 151.12171 2999 ft 213 kts 171°
2026-04-21 17:41 -33.74884 151.12482 3021 ft 201 kts 168°
2026-04-21 17:41 -33.76215 151.12817 2993 ft 191 kts 168°
2026-04-21 17:41 -33.77508 151.13152 2993 ft 186 kts 167°
2026-04-21 17:41 -33.78713 151.13465 2931 ft 175 kts 167°
2026-04-21 17:42 -33.79885 151.13770 2686 ft 170 kts 167°
2026-04-21 17:42 -33.81028 151.14066 2482 ft 165 kts 168°
2026-04-21 17:42 -33.82136 151.14353 2228 ft 155 kts 167°
2026-04-21 17:42 -33.83155 151.14618 2041 ft 149 kts 168°
2026-04-21 17:43 -33.84168 151.14881 1855 ft 152 kts 168°
2026-04-21 17:43 -33.85201 151.15149 1646 ft 151 kts 168°
2026-04-21 17:43 -33.86228 151.15414 1464 ft 149 kts 167°
2026-04-21 17:43 -33.87221 151.15673 1245 ft 140 kts 167°
2026-04-21 17:44 -33.88155 151.15916 1058 ft 137 kts 168°
2026-04-21 17:44 -33.89073 151.16153 873 ft 132 kts 168°
2026-04-21 17:44 -33.89981 151.16393 659 ft 134 kts 165°
2026-04-21 17:44 -33.90886 151.16629 530 ft 134 kts 168°
2026-04-21 17:45 -33.91805 151.16864 299 ft 134 kts 166°
2026-04-21 17:45 -33.92699 151.17094 154 ft 131 kts 166°
2026-04-21 17:45 -33.93559 151.17315 35 ft 119 kts 166°
2026-04-21 17:45 -33.94243 151.17498 35 ft 76 kts 167°
2026-04-21 17:46 -33.94614 151.17597 34 ft 45 kts 167°
2026-04-21 17:46 -33.94900 151.17670 33 ft 39 kts 168°
2026-04-21 17:46 -33.95114 151.17729 32 ft 18 kts 160°
2026-04-21 17:46 -33.95142 151.17863 34 ft 18 kts 81°
2026-04-21 17:47 -33.95073 151.17933 35 ft 15 kts 356°
2026-04-21 17:47 -33.94969 151.17910 35 ft 15 kts 348°
2026-04-21 17:47 -33.94866 151.17882 34 ft 15 kts 348°
2026-04-21 17:47 -33.94763 151.17856 34 ft 15 kts 348°
2026-04-21 17:48 -33.94695 151.17838 34 ft 15 kts 348°
2026-04-21 17:48 -33.94557 151.17802 34 ft 15 kts 347°
2026-04-21 17:48 -33.94454 151.17773 34 ft 15 kts 345°
2026-04-21 17:48 -33.94352 151.17741 34 ft 15 kts 345°
2026-04-21 17:49 -33.94250 151.17709 34 ft 15 kts 346°
2026-04-21 17:49 -33.94147 151.17678 33 ft 15 kts 346°
2026-04-21 17:49 -33.94045 151.17649 33 ft 15 kts 347°
2026-04-21 17:49 -33.93935 151.17620 33 ft 19 kts 347°
2026-04-21 17:50 -33.93783 151.17581 34 ft 23 kts 348°
2026-04-21 17:50 -33.93626 151.17540 33 ft 23 kts 348°
2026-04-21 17:50 -33.93470 151.17503 34 ft 22 kts 358°
2026-04-21 17:50 -33.93317 151.17488 34 ft 22 kts 348°
2026-04-21 17:51 -33.93167 151.17449 35 ft 22 kts 348°
2026-04-21 17:51 -33.93017 151.17409 35 ft 20 kts 348°
2026-04-21 17:51 -33.92918 151.17392 34 ft 13 kts 356°
2026-04-21 17:51 -33.92857 151.17395 35 ft 6 kts 36°
2026-04-21 17:52 -33.92840 151.17445 35 ft 7 kts 77°
2026-04-21 17:52 -33.92835 151.17478 35 ft 0 kts 78°
2026-04-21 17:52 -33.92834 151.17480 35 ft 0 kts 78°